Weather in Pestovo

Russia / Novgorod Oblast     58°27′56″N   33°15′53″E
temp.,
°C
wind,
m/s
gust,
m/s
humid.,
%
clouds,
%
prec.,
mm/h
press.,
hPa
HPBL,
m
5 december, sun
sun500:00−10ne2292100 0.2 1011298
03:00−11e359199 0.3 1013335
06:00−13e369087 0.1 1013325
09:00−14e379083 0.1 1016340
12:00−14e368497 0.0 1018379
15:00−13ene368590 0.0 1018410
18:00−15ene389070 0.0 1020385
21:00−16e388917 0.0 1022335
6 december, mon
mon600:00−16e38897 0.0 1023321
03:00−17e38897 0.0 1023282
06:00−17e39897 0.0 1023264
09:00−17e399165 0.0 1023250
12:00−14e4889100 0.1 1023283
15:00−12e4890100 0.1 1022334
18:00−12e4992100 0.2 1021328
21:00−11ese3992100 0.4 1020314
7 december, tue
tue700:00−10e3993100 0.2 1019277
03:00−9e3894100 0.9 1017247
06:00−7e3895100 0.6 1015278
09:00−6e3895100 1.3 1013360
12:00−5e2695100 0.8 1012307
15:00−5ene239675 1.3 1011230
18:00−7nnw119883 0.1 101125
21:00−10nw119990 0.1 101212
8 december, wed
wed800:00−9wnw259876 0.1 101292
03:00−10wnw269874 0.1 1013128
06:00−11w269774 0.0 1014153
09:00−12w269771 0.1 1016136
12:00−10wnw269274 0.0 1017222
15:00−10w259577 0.1 1018204
18:00−14w239860 0.0 102056
21:00−15wnw119859 0.0 102229
9 december, thu
thu900:00−16nw119866 0.0 102313
03:00−16nnw119969 0.0 102313
06:00−16nnw119864 0.0 102311
09:00−16n119863 0.0 102415
12:00−12nne1293100 0.0 1023109
15:00−11n1495100 0.0 1023145
18:00−11nne2596100 0.0 1023150
21:00−14n239863 0.0 102354